#timestamp,LO_Frequency,Hit,StdDev 
1595750415.5,286047021.9,N
1595750435.4,286047013.5,N
1595750455.2,286047011.8,N
1595750475.0,286047008.6,N
1595750475.9,286047008.6,N
1595750495.8,286047003.7,N
1595750515.6,286047007.1,N
1595750535.4,286047016.4,N
1595750555.3,286047022.6,N
1595750575.1,286047026.3,N
1595750595.9,286047024.9,N
1595750615.7,286047017.3,N
1595750635.5,286047014.4,N
1595750655.4,286047010.0,N
1595750675.2,286047011.8,N
1595750695.0,286047015.6,N
1595750695.9,286047015.6,N
1595750715.8,286047015.4,N
1595750735.6,286047012.4,N
1595750755.4,286047013.0,N
1595750775.3,286047017.0,N
1595750795.1,286047017.3,N
1595750815.9,286047027.9,Y
1595750835.7,286047019.5,P
1595750855.5,286047013.9,P
1595750875.4,286047009.3,P
1595750895.2,286047008.0,N
1595750915.0,286047005.0,N
1595750916.0,286047005.0,N
1595750935.8,286047007.1,N
1595750955.6,286047003.6,N
1595750975.5,286047000.3,N
1595750995.3,286046994.4,N
1595751015.1,286046995.1,N
1595751035.9,286046996.8,N
1595751055.7,286047000.7,N
1595751075.6,286047001.1,N
1595751095.4,286047001.2,N
1595751115.2,286047002.3,N
1595751135.1,286047000.1,N
1595751136.0,286047000.1,N
1595751155.8,286046998.3,N
1595751175.6,286047002.8,N
1595751195.5,286047006.5,N
1595751215.3,286047005.5,N
1595751235.2,286047009.2,N
1595751255.9,286047015.4,N
1595751275.7,286047023.0,Y
1595751295.6,286047027.9,P
1595751315.4,286047031.4,N
1595751335.2,286047037.9,P
1595751355.1,286047040.7,Y
1595751356.0,286047040.7,P
1595751375.8,286047022.3,N
1595751395.7,286047027.2,P
1595751415.5,286047028.3,Y
1595751435.3,286046999.0,P
1595751455.2,286046997.2,N
1595751475.0,286046999.5,N
1595751475.9,286046999.5,N
1595751495.8,286046997.4,N
1595751515.6,286047002.8,N
1595751535.4,286047006.9,N
1595751555.3,286047004.6,N
1595751575.1,286047009.5,N
1595751595.8,286047013.5,N
1595751615.7,286047012.2,N
1595751635.5,286047010.0,N
1595751655.4,286047010.7,N
1595751675.2,286047008.3,N
1595751695.0,286047008.9,N
1595751695.9,286047008.9,N
1595751715.8,286047011.6,N
1595751735.6,286047016.3,N
1595751755.4,286047017.7,N
1595751775.3,286047023.2,Y
1595751795.1,286047037.5,P
1595751815.9,286047018.8,N
1595751835.7,286047020.4,N
1595751855.5,286047019.6,N
1595751875.4,286047019.3,N
1595751895.2,286047022.4,N
1595751915.0,286047024.0,N
1595751915.9,286047024.0,Y
1595751935.8,286047000.0,P
1595751955.6,286047002.2,N
1595751975.5,286047003.7,N
1595751995.3,286047000.2,N
1595752015.1,286047004.4,N
1595752035.9,286047002.5,N
1595752055.7,286047000.3,N
1595752075.5,286046995.0,N
1595752095.4,286046998.3,N
1595752115.2,286047000.1,N
1595752135.1,286047002.7,N
1595752136.0,286047002.7,N
1595752155.8,286046997.9,N
1595752175.6,286046997.4,N
1595752195.5,286046999.0,N
1595752215.3,286046995.6,N
1595752235.1,286046996.0,N
1595752255.9,286046992.5,N
1595752275.7,286046991.3,N
1595752295.6,286046995.0,N
1595752315.4,286046998.9,N
1595752335.2,286046999.4,N
1595752355.1,286046995.3,N
1595752356.0,286046995.3,N
1595752375.8,286046996.2,N
1595752395.6,286046992.6,N
1595752415.5,286046994.5,N
1595752435.3,286047000.0,N
1595752455.1,286047001.4,N
1595752475.9,286047000.6,N
1595752495.7,286046996.2,N
1595752515.6,286046994.1,N
1595752535.4,286046994.4,N
1595752555.2,286046999.0,N
1595752575.1,286047001.6,N
1595752576.0,286047001.6,N
1595752595.8,286046999.8,N
1595752615.6,286047005.3,N
1595752635.5,286047006.9,N
1595752655.3,286047003.4,N
1595752675.2,286047003.4,N
1595752695.9,286047006.9,N
1595752715.7,286047005.5,N
1595752735.6,286047005.2,N
1595752755.4,286047005.5,N
1595752775.2,286047003.0,N
1595752795.1,286047007.0,N
1595752796.0,286047007.0,N
1595752815.8,286047011.1,N
1595752835.7,286047009.7,N
1595752855.5,286047011.0,N
1595752875.3,286047013.5,N
1595752895.2,286047012.7,N
1595752915.0,286047016.6,N
1595752915.9,286047016.6,N
1595752935.7,286047017.1,N
1595752955.6,286047011.9,N
1595752975.4,286047005.2,N
1595752995.3,286047002.9,N
1595753015.1,286047007.5,N
1595753016.0,286047007.5,N
1595753035.8,286047001.8,N
1595753055.7,286047001.5,N
1595753075.5,286047009.1,N
1595753095.4,286047007.7,N
1595753115.2,286047009.8,N
1595753135.0,286047009.4,N
1595753135.9,286047009.4,N
1595753155.8,286047006.6,N
1595753175.6,286047005.8,N
1595753195.4,286047005.3,N
1595753215.3,286047003.0,N
1595753235.1,286047003.4,N
1595753255.9,286047002.4,N
1595753275.7,286047006.0,N
1595753295.5,286047008.6,N
1595753315.4,286047011.9,N
1595753335.2,286047010.4,N
1595753355.1,286047010.4,N
1595753356.0,286047010.4,N
1595753375.8,286047011.6,N
1595753395.6,286047012.9,N
1595753415.5,286047012.9,Y
1595753435.8,286047005.2,P
1595753455.7,286047007.5,P
1595753475.5,286047003.4,N
1595753495.3,286047002.9,N
1595753515.2,286046997.5,N
1595753535.0,286046994.0,N
1595753535.9,286046994.0,N
1595753555.8,286046996.0,N
1595753575.6,286046991.8,N
1595753595.4,286046996.0,N
1595753615.3,286046998.1,N
1595753635.1,286046999.2,N
1595753655.8,286046999.1,N
1595753675.7,286046997.4,N
1595753695.5,286046998.9,N
1595753715.4,286046997.7,N
1595753735.2,286046999.5,N
1595753755.0,286047000.6,N
1595753755.9,286047000.6,N
1595753775.8,286047000.4,N
1595753795.6,286046999.7,N
1595753815.4,286046999.7,N
1595753835.3,286047004.4,N
1595753855.1,286047004.3,N
1595753875.9,286047000.5,N
1595753895.7,286046998.1,N
1595753915.5,286046996.9,N
1595753935.4,286046990.4,N
1595753955.2,286046992.3,N
1595753975.0,286046994.8,N
1595753975.9,286046994.8,N
1595753995.8,286046985.3,Y
